Location: Ciserano
(45.5833°N, 9.6000°E)
Time: 00:49:10
(UTC+00:00)

FALCON 9 DEB - Pass Details

Date: 21 April 2021
Orbit: 369 x 385 km, 53.0° (Epoch: 10 May)

Event Time Altitude Azimuth Distance (km) Brightness Sun altitude
Rises 20:40:31 0° 247° (WSW) 2,210 7.0 -22.0°
Reaches altitude 10° 20:42:34 10° 251° (WSW) 1,364 5.9 -22.2°
Enters shadow 20:43:45 21° 257° (WSW) 898 5.0 -22.4°
